This is the latest recevied weather packets stored in our database for station/object KJ4RDP-13. If no packets are shown the sender has not sent any weather packets the latest 10 day(s).
| Time | Temp. | Humidity | Pressure | Rain* | Wind** | Luminosity | Snow |
|---|---|---|---|---|---|---|---|
| 1778098781 | 20.56° C | 87% | 1013.1 hPa | 0 mm | - | 291 W/m² | - |
| 1778098479 | 20° C | 87% | 1013.1 hPa | 0 mm | - | 324 W/m² | - |
| 1778098175 | 20.56° C | 89% | 1013.1 hPa | 0 mm | - | 285 W/m² | - |
| 1778097871 | 20° C | 90% | 1013.1 hPa | 0 mm | - | 238 W/m² | - |
| 1778097568 | 20.56° C | 89% | 1013.5 hPa | 0 mm | - | 247 W/m² | - |
| 1778097265 | 20° C | 90% | 1013.5 hPa | 0 mm | - | 168 W/m² | - |
| 1778096961 | 20° C | 90% | 1013.1 hPa | 0 mm | - | 205 W/m² | - |
| 1778096659 | 20.56° C | 89% | 1013.5 hPa | 0 mm | - | 237 W/m² | - |
| 1778096356 | 20.56° C | 89% | 1013.5 hPa | 0 mm | - | 317 W/m² | - |
| 1778096052 | 20° C | 90% | 1013.5 hPa | 0 mm | - | 333 W/m² | - |
| 1778095749 | 20° C | 89% | 1013.8 hPa | 0 mm | - | 317 W/m² | - |
| 1778095446 | 20° C | 90% | 1013.5 hPa | 0 mm | - | 268 W/m² | - |
| 1778095143 | 20.56° C | 88% | 1013.8 hPa | 0 mm | - | 219 W/m² | - |
| 1778094839 | 20° C | 90% | 1013.8 hPa | 0 mm | - | 470 W/m² | - |
| 1778094536 | 20° C | 92% | 1013.8 hPa | 0 mm | - | 642 W/m² | - |
| 1778094232 | 19.44° C | 93% | 1013.8 hPa | 0 mm | - | 365 W/m² | - |
| 1778093929 | 19.44° C | 94% | 1013.8 hPa | 0 mm | - | 439 W/m² | - |
| 1778093626 | 18.89° C | 94% | 1013.8 hPa | 0 mm | - | 460 W/m² | - |
| 1778093323 | 18.33° C | 99% | 1013.8 hPa | 0 mm | - | 429 W/m² | - |
| 1778093020 | 17.22° C | 99% | 1013.5 hPa | 0 mm | - | 344 W/m² | - |
| 1778092718 | 17.22° C | 99% | 1013.8 hPa | 0 mm | - | 200 W/m² | - |
| 1778092413 | 17.22° C | 99% | 1013.8 hPa | 0 mm | - | 182 W/m² | - |
| 1778092111 | 17.22° C | 99% | 1013.5 hPa | 0 mm | - | 207 W/m² | - |
| 1778091807 | 17.22° C | 99% | 1013.5 hPa | 0 mm | - | 212 W/m² | - |
| 1778091505 | 17.22° C | 99% | 1013.5 hPa | 0 mm | - | 244 W/m² | - |
* Rain latest hour (hover to see other rain measurements)
** Current wind speed in m/s (hover to see current wind gust speed)